sat.trackr.live / text

‹ back to catalog

RASSVET-3 9

NORAD 68368 · 2026-061J

PAYLOAD ACTIVE UNKNOWN

§ Identity

Operator
Country
CIS
Launch date
2026-03-23
Launch site
PLMSC
Launch vehicle
Mass (kg)
RCS (m²)

External: N2YO · Heavens-Above · Gunter

§ Orbital elements

Epoch: 2026-05-25T03:40:12.847008Z

Period
90.89 min
Inclination
82.2970°
Eccentricity
0.0006950
Mean motion
15.84329112 rev/d
Perigee alt
313.6 km
Apogee alt
322.9 km
Semi-major
6,696.4 km
B*
3.0325e-4
RAAN
38.2444°
Arg perigee
173.4769°
Mean anomaly
186.6592°
Rev number
990

§ Raw data

RASSVET-3 91 68368U 26061J   26145.15292647  .00069075  00000+0  30325-3 0  99922 68368  82.2970  38.2444 0006950 173.4769 186.6592 15.84329112  9904

JSON: /api/v1/satellites/68368 · /tle

For live sub-satellite position, see the globe view (requires WebGL).

§ Visibility from observer

Set your observer location to see the next 7 days of passes ≥ 10°. The values pass through the URL so the page stays shareable.

No JS? Fill the form by hand. The geolocation button needs JavaScript.